Weather in Borskoe

Russia / Samara Oblast     53°01′31″N   51°41′55″E
temp.,
°C
wind,
m/s
gust,
m/s
humid.,
%
clouds,
%
prec.,
mm/h
press.,
hPa
HPBL,
m
2 july, sat
sat201:00+12e410888 0.1 1010159
04:00+11e5109099 0.1 1010184
07:00+14e4981100 0.0 1011256
10:00+20ene695589 0.0 1010758
13:00+23ene7845100 0.0 10101833
16:00+21ene4959100 0.0 1009292
19:00+17se71282100 0.7 1010404
22:00+15ene3591100 1.6 1010112
3 july, sun
sun301:00+15ne2294100 1.1 101040
04:00+14nne3497100 2.2 1009119
07:00+14nne61194100 0.9 1009287
10:00+15ne4990100 1.0 1009398
13:00+20nne466969 0.0 1008484
16:00+23nne665025 0.0 10071839
19:00+19nne611755 0.6 1007561
22:00+15nne35905 1.6 100867
4 july, mon
mon401:00+14n499285 0.0 1007173
04:00+12n4993100 0.0 1007193
07:00+15n5108769 0.0 1008530
10:00+18n686514 0.0 10091145
13:00+20n676199 0.1 10091414
16:00+20nne797026 1.1 10091327
19:00+19nne6107589 0.5 1010995
22:00+15nne51282100 0.5 1012445
5 july, tue
tue501:00+12nne49895 0.0 1012190
04:00+11n3990100 0.0 1014173
07:00+15nne59745 0.0 1015379
10:00+19nne695143 0.0 10151452
13:00+21nne68475 0.0 10161851
16:00+21nne68489 0.0 10161979
19:00+19nne3666100 0.0 1016290
22:00+14ene2281100 0.0 101727
6 july, wed
wed601:00+12ene1186100 0.0 101811
04:00+12nne118288 0.0 101810
07:00+16nw127239 0.0 1019175
10:00+21wnw23615 0.0 1018671
13:00+24wnw33525 0.0 10181477
16:00+25wnw354921 0.0 10171941
19:00+24nw35660 0.0 1017192
22:00+18w22780 0.0 101711